Well Details
Well Information

03721361

Standard Sesnon

44B

Los Angeles [037]

2

Southern California Gas Company [S4700]

Aliso Canyon [010]

Any Area [00]

28

03N

16W

SB

Active

GS, OG


gps

83

34.312438

-118.565468

map

Well Records

File Name Type Size Modified on
 
 03721361_SS 44B_PTEST_02-07-2017.xlsx Excel 23.00 KB 2/8/2017
 03721361_DATA_11-19-07.pdf PDF 13.00 MB 1/23/2017
 03721361_SS 44B_PTEST_09-07-2016.xls Excel 96.00 KB 9/23/2016
 03721361_v.pdf PDF 243.00 KB 8/8/2016
 03721361.pdf PDF 152.00 KB 8/4/2016
 03721361_SS 44B_Temp_04-14-2016.pdf PDF 847.00 KB 4/20/2016
 03721361_SS 44B_Noise_04-14-2016.pdf PDF 3.00 MB 4/20/2016
 03721361_SS 44B_Noise_04-14-2016.las Text 1.00 MB 4/20/2016
 03721361_SS 44B_Noise_04-14-2016.csv csv 20.00 KB 4/20/2016
 03721361_Survey_Temperature_09-28-2015(SS44B).pdf PDF 741.00 KB 10/8/2015
 03721361_Survey_Temperature_09-10-2014(SS44B).pdf PDF 175.00 KB 9/22/2014
 03721361_Survey_Temperature_11-19-2013(SS44B).pdf PDF 318.00 KB 12/9/2013
 03721361_Survey_Temperature_06-07-2012(SS44B).pdf PDF 104.00 KB 6/15/2012
 03721361_Survey_Temperature_10-03-2011.pdf PDF 92.00 KB 3/15/2012
 03721361_Compensated Density Dual Spaced Neutron_10-2-1989.tif TIF 235.00 KB 2/15/2012
 03721361_Survey_Temperature_10-03-2011(SS44B).pdf PDF 92.00 KB 10/17/2011
 03721361_Survey_Temperature_08-31-2010(SS44B).pdf PDF 36.00 KB 9/20/2010
 03721361_TEMPERATURE_09-29-2009.pdf PDF 156.00 KB 10/8/2009
 03721361_Temperature_7-27-2006.tif TIF 64.00 KB 6/24/2009
 03721361_Temperature_11-18-2004.tif TIF 63.00 KB 6/24/2009
 03721361_Temperature_7-26-2004.tif TIF 64.00 KB 6/24/2009
 03721361_Pressure Survey_7-27-2006.tif TIF 69.00 KB 6/23/2009
 03721361_Pressure Survey_8-14-2005.tif TIF 67.00 KB 6/20/2009
 03721361_Temperature_8-14-2005.tif TIF 55.00 KB 6/20/2009
 03721361_PRESSURE_TEMPERATURE_12-15-2008(SS44B).pdf PDF 37.00 KB 12/31/2008
 03721361_Static Temperature_10-2-1984.tif TIF 182.00 KB 12/23/2007
 03721361_Static Temperature_8-25-1992.tif TIF 156.00 KB 12/22/2007
 03721361_Static Temperature_8-10-1993.tif TIF 580.00 KB 12/22/2007
 03721361_Static Temperature_7-18-1994.tif TIF 467.00 KB 12/22/2007
 03721361_Static Temperature_9-4-1991.tif TIF 170.00 KB 12/22/2007
 03721361_Static Temperature_11-14-1996.tif TIF 229.00 KB 12/22/2007
 03721361_Noise and Temperature Survey_11-12-1993.tif TIF 512.00 KB 12/22/2007
 03721361_Static Temperature_11-17-1998.tif TIF 51.00 KB 12/22/2007
 03721361_Static Temperature_8-8-2001.tif TIF 56.00 KB 12/22/2007
 03721361_Compensated Density Log_8-18-1974.tif TIF 243.00 KB 8/12/2007
 03721361_Caliper Log_9-18-1974.tif TIF 209.00 KB 8/12/2007
 03721361_Sidewall Neutron Log_8-18-1974.tif TIF 346.00 KB 8/12/2007
 03721361_Cement Bond Log_8-4-1976.tif TIF 2.00 MB 8/11/2007
 03721361_Micro-Seismogram Log-Cased Hole_8-11-1974.tif TIF 3.00 MB 8/11/2007
 03721361_Computer Analyzed Log_8-18-1974.tif TIF 386.00 KB 6/6/2007
 03721361_Induction-Electrical Log_8-18-1974.tif TIF 1.00 MB 6/6/2007


Production Data


Date Oil(bbl) Water(bbl) Gas(Mcf) Days Producing Gravity Csg Tbg BTU MO Disp PWT Status Well Type Status Pool Code Sum Row
Date Oil(bbl) Water(bbl) Gas(Mcf) Days Producing Gravity Csg Tbg BTU MO Disp PWT Status Well Type Status Pool Code Sum Row


Injection Data


Date Water/Steam(bbl) Gas/Air(Mcf) Days Injecting Pressure Water Source Water Kind PWT Status Well Type Status Pool Code Sum Row
Date Water/Steam(bbl) Gas/Air(Mcf) Days Injecting Pressure Water Source Water Kind PWT Status Well Type Status Pool Code Sum Row



Production Charts



Injection Charts